This is the latest recevied weather packets stored in our database for station/object KB4MLW-13. If no packets are shown the sender has not sent any weather packets the latest 10 day(s).
| Time | Temp. | Humidity | Pressure | Rain* | Wind** | Luminosity | Snow |
|---|---|---|---|---|---|---|---|
| 1788211589 | 34.44° C | 58% | 1001 hPa | 0 mm | - | - | - |
| 1788211529 | 34.44° C | 56% | 1000.9 hPa | 0 mm | - | - | - |
| 1788211439 | 33.89° C | 55% | 1001.1 hPa | 0 mm | - | - | - |
| 1788211378 | 33.89° C | 59% | 1000.9 hPa | 0 mm | - | - | - |
| 1788211318 | 33.89° C | 57% | 1000.9 hPa | 0 mm | - | - | - |
| 1788211260 | 33.89° C | 58% | 1001 hPa | 0 mm | - | - | - |
| 1788211170 | 34.44° C | 57% | 1001.1 hPa | 0 mm | - | - | - |
| 1788211108 | 34.44° C | 58% | 1001.1 hPa | 0 mm | - | - | - |
| 1788211019 | 34.44° C | 57% | 1000.9 hPa | 0 mm | - | - | - |
| 1788210928 | 35° C | 57% | 1000.9 hPa | 0 mm | - | - | - |
| 1788210868 | 35° C | 57% | 1001.1 hPa | 0 mm | - | - | - |
| 1788210808 | 35° C | 57% | 1001 hPa | 0 mm | - | - | - |
| 1788210658 | 34.44° C | 57% | 1001.3 hPa | 0 mm | - | - | - |
| 1788210598 | 34.44° C | 55% | 1001.2 hPa | 0 mm | - | - | - |
| 1788210538 | 34.44° C | 58% | 1000.9 hPa | 0 mm | - | - | - |
| 1788210478 | 35° C | 57% | 1001 hPa | 0 mm | - | - | - |
| 1788210418 | 35.56° C | 54% | 1001 hPa | 0 mm | - | - | - |
| 1788210329 | 35.56° C | 56% | 1001.1 hPa | 0 mm | - | - | - |
| 1788210268 | 35° C | 55% | 1001.1 hPa | 0 mm | - | - | - |
| 1788210208 | 35° C | 53% | 1001.1 hPa | 0 mm | - | - | - |
| 1788210148 | 35° C | 54% | 1001.1 hPa | 0 mm | - | - | - |
| 1788210088 | 35° C | 54% | 1001.3 hPa | 0 mm | - | - | - |
| 1788209999 | 35° C | 56% | 1001.3 hPa | 0 mm | - | - | - |
| 1788209938 | 35° C | 53% | 1001.2 hPa | 0 mm | - | - | - |
| 1788209878 | 34.44° C | 58% | 1001.1 hPa | 0 mm | - | - | - |
* Rain latest hour (hover to see other rain measurements)
** Current wind speed in m/s (hover to see current wind gust speed)